AV194 Weather Reports


Display with metric or nautical units.
time (UTC)temp
F
wind
direction
speed
MPH
gust
MPH
rain 1hr
in
rain 24hr
in
rain mn
in
humidity
%
barometer
mb
20200217103058 25 17 0.0 0.0 0.00 0.00 0.00 88 1019.6
20200217101601 25 17 0.0 0.0 0.00 0.00 0.00 89 1019.4
20200217100130 25 17 0.0 0.0 0.00 0.00 0.00 89 1019.4
20200217094556 25 17 0.0 0.0 0.00 0.00 0.00 89 1019.4
20200217093056 25 17 0.0 0.0 0.00 0.00 0.00 88 1019.2
20200217091541 25 17 0.0 0.0 0.00 0.00 0.00 88 1018.9
20200217090035 26 17 0.0 0.0 0.00 0.00 0.00 88 1018.7
20200217084557 26 17 0.0 0.0 0.00 0.00 0.00 88 1018.6
20200217083029 26 17 0.0 0.0 0.00 0.00 0.00 88 1018.4
20200217081534 26 17 0.0 0.0 0.00 0.00 0.00 88 1018.1
20200217080046 26 17 0.0 0.0 0.00 0.00 0.00 87 1018.1
20200217074541 26 17 0.0 0.0 0.00 0.00 0.00 87 1018.2
20200217073048 26 17 0.0 0.0 0.00 0.00 0.00 86 1018.0
20200217071520 26 17 0.0 0.0 0.00 0.00 0.00 86 1018.1
20200217070023 27 17 0.0 0.0 0.00 0.00 0.00 85 1018.3
20200217064551 27 17 0.0 0.0 0.00 0.00 0.00 84 1018.4
20200217063014 27 17 0.0 0.0 0.00 0.00 0.00 84 1018.4
20200217061534 28 17 0.0 0.0 0.00 0.00 0.00 83 1018.3
20200217060013 28 17 0.0 0.0 0.00 0.00 0.00 82 1018.1
20200217054511 28 17 0.0 0.0 0.00 0.00 0.00 82 1018.1
20200217053009 29 17 0.0 0.0 0.00 0.00 0.00 81 1017.9
20200217051509 29 17 0.0 0.0 0.00 0.00 0.00 80 1018.0
20200217050151 30 17 0.0 0.0 0.00 0.00 0.00 80 1018.2
20200217044839 30 17 0.0 0.0 0.00 0.00 0.00 78 1017.8
20200217043118 31 17 0.0 0.0 0.00 0.00 0.00 78 1017.8
20200217041704 32 17 0.0 0.0 0.00 0.00 0.00 78 1017.8
20200217040122 32 17 0.0 0.0 0.00 0.00 0.00 78 1017.7
20200217034752 33 17 0.0 0.0 0.00 0.00 0.00 78 1017.9
20200217033150 33 17 0.0 0.0 0.00 0.00 0.00 79 1017.9
20200217031639 33 17 0.0 0.0 0.00 0.00 0.00 79 1017.8
20200217030207 33 17 0.0 0.0 0.00 0.00 0.00 79 1018.1
20200217024555 34 17 0.0 0.0 0.00 0.00 0.00 78 1017.9
20200217023141 34 17 0.0 0.0 0.00 0.00 0.00 78 1017.8
20200217021731 34 17 0.0 0.0 0.00 0.00 0.00 78 1018.1
20200217020121 34 17 0.0 0.0 0.00 0.00 0.00 77 1018.2
20200217014753 34 17 0.0 0.0 0.00 0.00 0.00 78 1017.9
20200217013132 34 17 0.0 0.0 0.00 0.00 0.00 77 1017.8
20200217011755 34 17 0.0 0.0 0.00 0.00 0.00 77 1017.7
20200217010150 34 17 0.0 0.0 0.00 0.00 0.00 75 1017.6
20200217004741 34 17 0.0 0.0 0.00 0.00 0.00 75 1017.7
20200217003135 34 17 0.0 0.0 0.00 0.00 0.00 76 1017.5
20200217001645 35 17 0.0 0.0 0.00 0.00 0.00 75 1017.4
20200217000425 35 17 0.0 0.0 0.00 0.00 0.00 73 1017.7
20200216234638 35 17 0.0 0.0 0.00 0.00 0.00 72 1018.0
20200216233115 36 17 0.0 0.0 0.00 0.00 0.00 70 1017.9
20200216230214 36 17 0.0 0.0 0.00 0.00 0.00 69 1017.6
20200216224658 36 17 0.0 0.0 0.00 0.00 0.00 67 1017.6
20200216223137 37 17 0.0 0.0 0.00 0.00 0.00 67 1017.6
20200216221743 38 17 0.0 0.0 0.00 0.00 0.00 67 1017.4
20200216220234 38 17 0.0 0.0 0.00 0.00 0.00 65 1017.2
20200216214744 39 17 0.0 0.0 0.00 0.00 0.00 62 1017.4
20200216213056 40 17 0.0 0.0 0.00 0.00 0.00 59 1017.1
20200216211631 40 17 0.0 0.0 0.00 0.00 0.00 57 1017.2
20200216210110 40 318 0.0 0.0 0.00 0.00 0.00 57 1017.2
20200216204705 40 318 0.0 0.0 0.00 0.00 0.00 57 1017.3
20200216203325 40 346 0.0 0.0 0.00 0.00 0.00 56 1017.3
20200216201600 40 11 0.0 0.0 0.00 0.00 0.00 56 1017.3
20200216200115 40 240 0.0 1.0 0.00 0.00 0.00 55 1017.4
20200216194619 40 239 0.0 0.0 0.00 0.00 0.00 57 1017.4
20200216193050 40 236 0.0 2.0 0.00 0.00 0.00 53 1017.4
20200216191614 40 188 0.0 4.0 0.00 0.00 0.00 53 1017.5
20200216190035 39 213 0.0 0.0 0.00 0.00 0.00 55 1017.6
20200216184605 38 238 0.0 1.0 0.00 0.00 0.00 54 1017.8
20200216183051 38 345 0.0 5.0 0.00 0.00 0.00 59 1017.9
20200216181535 37 238 0.0 0.0 0.00 0.00 0.00 56 1018.2
20200216180045 37 223 0.0 0.0 0.00 0.00 0.00 56 1018.3
20200216174526 36 236 0.0 0.0 0.00 0.00 0.00 57 1018.4
20200216173046 36 273 0.0 0.0 0.00 0.00 0.00 58 1018.4
20200216171521 35 187 0.0 0.0 0.00 0.00 0.00 59 1018.7
20200216170014 35 184 0.0 0.0 0.00 0.00 0.00 59 1019.0
20200216164534 35 202 0.0 5.0 0.00 0.00 0.00 59 1019.3
20200216163010 35 189 0.0 4.0 0.00 0.00 0.00 58 1019.6
20200216161506 35 101 0.0 2.0 0.00 0.00 0.00 59 1019.8
20200216160002 35 242 0.0 4.0 0.00 0.00 0.00 58 1020.0
20200216154647 34 254 0.0 7.0 0.00 0.00 0.00 58 1020.1
20200216153124 33 234 0.0 1.0 0.00 0.00 0.00 59 1020.3
20200216151647 33 204 0.0 0.0 0.00 0.00 0.00 62 1020.4
20200216150145 32 209 0.0 5.0 0.00 0.00 0.00 62 1020.4
20200216144553 31 266 0.0 5.0 0.00 0.00 0.00 62 1020.7
20200216143223 31 267 0.0 5.0 0.00 0.00 0.00 62 1020.7
20200216141605 30 246 0.0 1.0 0.00 0.00 0.00 65 1021.0
20200216140120 29 252 0.0 2.0 0.00 0.00 0.00 65 1021.0
20200216134640 28 209 0.0 2.0 0.00 0.00 0.00 66 1021.1
20200216133145 28 256 0.0 0.0 0.00 0.00 0.00 66 1021.2
20200216131539 28 202 0.0 2.0 0.00 0.00 0.00 67 1021.2
20200216130049 27 234 0.0 4.0 0.00 0.00 0.00 68 1021.4
20200216124528 27 237 0.0 0.0 0.00 0.00 0.00 68 1021.4
20200216123045 27 260 0.0 0.0 0.00 0.00 0.00 68 1021.3
20200216121524 26 196 0.0 2.0 0.00 0.00 0.00 69 1021.3
20200216120040 26 229 0.0 0.0 0.00 0.00 0.00 67 1021.5
20200216114516 26 229 0.0 0.0 0.00 0.00 0.00 67 1021.5
20200216113035 26 215 0.0 1.0 0.00 0.00 0.00 67 1021.4
20200216111628 26 194 0.0 5.0 0.00 0.00 0.00 67 1021.4
20200216110059 26 192 0.0 1.0 0.00 0.00 0.00 66 1021.3
20200216104519 26 230 0.0 1.0 0.00 0.00 0.00 67 1021.4